Location: Libas
(9.8833°N, 125.9833°E)
Time: 10:18:16
(UTC+00:00)

Envisat - Pass Details

Date: 27 January 2021
Orbit: 764 x 766 km, 98.1° (Epoch: 27 February)

Event Time Altitude Azimuth Distance (km) Brightness Sun altitude
Rises 20:12:15 0° 35° (NE) 3,218 6.5 -25.9°
Reaches altitude 10° 20:15:03 10° 51° (NE) 2,293 5.9 -25.2°
Maximum altitude 20:18:52 22° 100° (E) 1,633 5.5 -24.3°
Drops below altitude 10° 20:22:41 10° 150° (SSE) 2,293 6.0 -23.4°
Sets 20:25:28 0° 165° (SSE) 3,219 6.6 -22.8°
